This is the latest recevied weather packets stored in our database for station/object EB1BWO-11. If no packets are shown the sender has not sent any weather packets the latest 10 day(s).
| Time | Temp. | Humidity | Pressure | Rain* | Wind** | Luminosity | Snow |
|---|---|---|---|---|---|---|---|
| 1777578939 | 17.78° C | 64% | 1022 hPa | - | - | - | - |
| 1777578039 | 17.78° C | 64% | 1021.8 hPa | - | - | - | - |
| 1777577139 | 17.78° C | 64% | 1021.6 hPa | - | - | - | - |
| 1777576239 | 18.33° C | 64% | 1021.3 hPa | - | - | - | - |
| 1777575338 | 18.33° C | 64% | 1021.3 hPa | - | - | - | - |
| 1777574438 | 18.89° C | 63% | 1021.1 hPa | - | - | - | - |
| 1777573538 | 18.89° C | 63% | 1021.1 hPa | - | - | - | - |
| 1777572638 | 19.44° C | 61% | 1020.9 hPa | - | - | - | - |
| 1777571738 | 19.44° C | 63% | 1020.8 hPa | - | - | - | - |
| 1777570838 | 20° C | 61% | 1020.7 hPa | - | - | - | - |
| 1777569938 | 20° C | 61% | 1020.7 hPa | - | - | - | - |
| 1777569038 | 20° C | 61% | 1020.6 hPa | - | - | - | - |
| 1777568137 | 20.56° C | 61% | 1020.5 hPa | - | - | - | - |
| 1777567237 | 20.56° C | 61% | 1020.4 hPa | - | - | - | - |
| 1777566337 | 21.11° C | 60% | 1020.3 hPa | - | - | - | - |
| 1777565437 | 21.67° C | 59% | 1020.2 hPa | - | - | - | - |
| 1777564537 | 22.78° C | 58% | 1020.2 hPa | - | - | - | - |
| 1777563637 | 22.78° C | 58% | 1020.1 hPa | - | - | - | - |
| 1777562737 | 22.78° C | 57% | 1020 hPa | - | - | - | - |
| 1777561836 | 23.89° C | 57% | 1019.9 hPa | - | - | - | - |
| 1777560936 | 24.44° C | 57% | 1019.7 hPa | - | - | - | - |
| 1777560036 | 24.44° C | 57% | 1019.8 hPa | - | - | - | - |
| 1777559136 | 25.56° C | 55% | 1019.7 hPa | - | - | - | - |
| 1777558236 | 27.78° C | 52% | 1019.5 hPa | - | - | - | - |
| 1777557336 | 29.44° C | 49% | 1019.5 hPa | - | - | - | - |
* Rain since midnight (hover to see other rain measurements)
** Current wind speed in m/s (hover to see current wind gust speed)